Weather in Viborg

Denmark     56°27′17″N   9°23′07″E
temp.,
°C
wind,
m/s
gust,
m/s
humid.,
%
clouds,
%
prec.,
mm/h
press.,
hPa
HPBL,
m
6 may, thu
thu623:00+4wnw6119295 0.3 994720
02:00+4nw5897100 0.4 995730
05:00+4nnw3698100 0.3 996533
08:00+4nnw578791 0.6 998662
11:00+6nnw567792 0.3 9991002
14:00+7nnw5570100 0.8 10001283
17:00+7nnw556784 0.4 10011233
20:00+5nnw3573100 0.5 1002461
7 may, fri
fri723:00+4n1277100 0.0 100388
02:00+3w1295100 0.2 1003249
05:00+2wsw2291100 0.0 100442
08:00+5wsw348397 0.0 1005321
11:00+9w335995 0.0 10051339
14:00+9w5564100 1.1 10061319
17:00+9w566528 1.6 10071327
20:00+7wnw58795 2.1 1008491
8 may, sat
sat823:00+3wsw48945 0.0 1010154
02:00+3w411915 0.0 1010274
05:00+3w612875 0.0 1011441
08:00+6w610795 0.0 10121143
11:00+10w79565 0.0 10121587
14:00+11wsw6749100 0.0 10131836
17:00+11sw5649100 0.0 10121676
20:00+9s4865100 0.0 1011389
9 may, sun
sun923:00+8se61269100 0.0 1008493
02:00+7se81586100 0.8 10041012
05:00+7sse81595100 2.3 1000737
08:00+10ssw51197100 2.9 1000542
11:00+14ssw7138787 0.0 1001960
14:00+19ssw8115798 0.0 10011398
17:00+19ssw81367100 0.3 10011473
20:00+15sse5148998 2.1 1001521
10 may, mon
mon1023:00+13s4119581 0.6 1001252
02:00+14sse4798100 2.3 1000175
05:00+14s3799100 3.5 999341
08:00+14s51396100 4.1 1000616
11:00+16sw588182 0.6 1002771
14:00+12wsw71194100 1.5 1005576
17:00+14wsw6977100 0.9 10071113
20:00+12sw4783100 0.9 1009495